Location: ???????
(55.8167°N, 37.5167°E)
Time: 22:32:03
(UTC+00:00)

Daily predictions for brighter satellites

Satellite Brightness Start Highest point End
(mag) Time Altitude Azimuth Time Altitude Azimuth Time Altitude Azimuth
Cosmos 2297 Rocket 4.1 15:54:05 10° W 15:58:56 28° NNW 16:03:47 10° NNE
Cosmos 1975 Rocket 3.8 15:56:26 10° NNW 16:00:43 59° W 16:04:57 10° S
Cosmos 494 Rocket 4.1 15:56:11 10° NNW 16:01:27 67° ENE 16:06:43 10° SE
Cosmos 2233 Rocket 4.3 15:57:12 10° SSW 16:03:24 77° WNW 16:09:37 10° N
Cosmos 2151 Rocket 4.2 15:59:59 10° SSE 16:04:02 34° E 16:08:07 10° NNE
Lacrosse 5 rocket 1.6 16:00:18 10° W 16:04:37 76° N 16:09:08 10° E
FREGAT/IRIS 4.1 16:03:07 10° ESE 16:04:47 16° ENE 16:06:27 10° NNE
Nadezhda 4 Rocket 4.0 15:59:48 10° N 16:05:53 59° ENE 16:11:55 10° SSE
NOSS 8 (H) 4.1 16:04:54 10° SW 16:07:55 87° SE 16:11:06 10° NE
COSMO-SKYMED 1 2.8 16:05:58 10° NNE 16:10:20 78° WNW 16:14:41 10° SSW
Cosmos 1269 Rocket 4.3 16:07:16 10° NNW 16:12:30 52° NE 16:17:41 10° SE
HJ-1C 3.3 16:09:42 10° SSE 16:13:00 76° ENE 16:16:19 10° NNW
Ariane Rocket 3.4 16:10:01 10° SE 16:14:49 45° ENE 16:19:40 10° N
H-2A R/B 2.0 16:10:17 10° SSE 16:15:19 81° ENE 16:20:33 10° NNW
USA 229 DEB 4.5 16:11:10 10° W 16:17:43 52° NNW 16:24:44 10° ENE
NOSS 3-2 (C) 4.3 16:10:34 10° NW 16:17:45 72° SW 16:26:01 10° SE
USA 229 4.4 16:11:15 10° W 16:17:49 52° NNW 16:24:50 10° ENE
COSMOS 2406 3.5 16:12:35 10° NNW 16:18:10 52° NE 16:23:41 10° ESE
SL-08 RB Rocket 3.9 16:14:26 10° SE 16:18:51 51° ENE 16:23:14 10° N
Cosmos 1689 Rocket 3.8 16:16:33 10° N 16:19:22 38° WNW 16:22:10 10° SW
Cosmos 2263 Rocket 2.6 16:13:50 10° SW 16:19:24 68° NW 16:25:03 10° NNE
Cosmos 1805 4.4 16:16:19 10° SE 16:19:27 23° E 16:22:35 10° NE
SJ 16-02 3.4 16:16:59 10° WSW 16:20:54 31° NW 16:24:50 10° NNE
USA 116 3.6 16:17:29 10° NNE 16:21:00 57° ESE 16:24:55 10° S
Cosmos 1844 Rocket 3.0 16:18:46 10° S 16:23:59 43° ESE 16:29:15 10° NE
OBJECT-B 2.3 16:22:24 13° ESE 16:24:20 21° ENE 16:26:52 10° NNE
KORONAS-FOTON 3.9 16:21:25 10° N 16:25:20 58° ENE 16:29:13 10° SSE
NOSS 3-4 (A) 4.5 16:22:42 10° SSE 16:27:06 22° ESE 16:31:44 10° ENE
NOSS 3-4 (C) 4.5 16:22:50 10° SSE 16:27:13 22° ESE 16:31:50 10° ENE
Cosmos 372 Rocket 3.9 16:22:18 10° SSW 16:27:31 76° ESE 16:32:45 10° NNE
Cosmos 1707 3.8 16:24:08 10° NNW 16:27:52 49° W 16:31:34 10° S
Meteor 2-5 Rocket 3.9 16:22:44 10° N 16:28:18 54° ENE 16:33:55 10° SSE
Cosmos 2278 Rocket 3.8 16:28:25 13° E 16:28:38 13° E 16:30:59 10° ENE
Cosmos 2034 Rocket 4.1 16:22:32 10° S 16:28:44 57° E 16:34:54 10° NNE
NOSS 3-1 (A) 4.3 16:24:02 10° W 16:29:56 51° NNW 16:37:01 10° ENE
Cosmos 1626 2.9 16:26:41 10° N 16:30:04 32° ENE 16:32:54 13° SE
IRS-1A Rocket 4.4 16:24:41 10° SE 16:30:28 61° ENE 16:36:11 10° NNW
Meteor 1-24 Rocket 4.1 16:25:50 10° N 16:31:09 46° ENE 16:36:38 10° SE
Cosmos 1844 4.1 16:25:58 10° S 16:31:13 40° ESE 16:36:27 10° NE
Meteor 1-12 Rocket 4.2 16:28:08 10° S 16:33:58 78° ESE 16:39:45 10° NNE
ATLAS CENTAUR R/B 3.2 16:32:00 10° WNW 16:35:00 22° N 16:37:57 10° NE
CENTAUR R/B 3.6 16:29:15 10° NW 16:36:59 65° SW 16:45:35 10° SSE
Lacrosse 4 Rocket 2.1 16:33:45 10° NNW 16:37:34 37° NE 16:40:15 17° E
NOSS 2-2 (E) 3.3 16:35:57 10° SW 16:39:37 87° NW 16:44:07 10° NE
ISS -2.9 16:36:55 10° SW 16:40:03 35° SSE 16:41:51 20° ESE
USA 186 1.7 16:40:01 10° SSE 16:43:15 70° ENE 16:46:34 10° N
Cosmos 1833 Rocket 2.9 16:38:27 10° NNW 16:44:03 58° NE 16:48:30 16° SE
Cosmos 1300 Rocket 3.6 16:40:33 10° SSW 16:45:00 85° WNW 16:49:29 10° NNE
Okean 1 Rocket 3.4 16:43:50 10° SSE 16:48:04 43° E 16:52:20 10° NNE
Cosmos 2298 Rocket 4.0 16:42:55 10° SSW 16:48:15 77° ESE 16:53:36 10° NNE
SL-14 R/B 3.6 16:44:29 10° N 16:48:16 44° ENE 16:51:00 17° SE
Sich 1 Rocket 4.4 16:44:32 10° SSW 16:49:00 56° WNW 16:53:32 10° N
NOSS 2-2 (D) 3.2 16:45:49 10° SW 16:49:27 88° NW 16:53:52 10° NE
Cosmos 2251 Rocket 4.3 16:44:25 10° NNW 16:49:28 38° NE 16:52:46 19° ESE
ATLAS 3B R/B 2.7 16:42:49 10° NW 16:49:37 82° NE 16:55:19 17° SE
ATLAS 2AS CENTAUR R/B 3.6 16:42:45 10° S 16:49:40 34° ESE 16:56:29 10° ENE
Resurs 01 Rocket 2.5 16:48:17 19° ESE 16:50:42 32° ENE 16:54:39 10° N
Cosmos 1025 Rocket 4.4 16:51:18 10° NNW 16:55:27 42° W 16:59:36 10° SSW
Cosmos 1634 Rocket 4.3 16:50:47 10° SSE 16:56:34 44° E 17:02:25 10° NNE
Cosmos 2227 Rocket 4.4 16:53:36 10° WNW 16:57:47 21° NNW 17:02:00 10° NNE
Okean 2 Rocket 3.6 16:54:49 10° SSW 16:59:16 64° WNW 17:03:44 10° N
Cosmos 1766 3.5 16:57:05 10° SSE 17:00:51 46° E 17:04:41 10° NNE
Cosmos 1470 4.4 17:01:51 17° ENE 17:01:51 17° ENE 17:03:40 10° NE
SPOT 3 Rocket 3.7 16:59:31 18° SE 17:03:15 54° ENE 17:08:17 10° N
ARIANE 5 R/B 3.7 17:04:58 23° E 17:06:19 28° ENE 17:10:01 10° N
Cosmos 2195 Rocket 4.5 17:01:27 10° N 17:07:46 86° E 17:13:58 10° SSE
Cosmos 1125 Rocket 3.4 17:03:49 10° SSW 17:09:07 74° ESE 17:14:27 10° NNE
Cosmos 2026 Rocket 4.0 17:04:13 10° N 17:10:38 80° ENE 17:17:02 10° SSE
Cosmos 1092 Rocket 4.0 17:04:32 10° NNW 17:10:44 84° W 17:16:57 10° S
Cosmos 1892 Rocket 3.6 17:07:35 10° N 17:11:54 57° ENE 17:14:14 25° SE
Cosmos 1464 Rocket 4.5 17:06:55 10° SSW 17:13:01 63° WNW 17:19:14 10° N
Resurs 1-3 3.6 17:11:30 22° SSE 17:14:15 65° ENE 17:18:38 10° N
Cosmos 2285 Rocket 3.9 17:09:01 10° SSW 17:15:16 69° ESE 17:21:38 10° NNE
Cosmos 2150 Rocket 4.3 17:10:28 10° SSW 17:15:54 77° WNW 17:21:26 10° NNE
SJ-6B 2.9 17:12:54 13° S 17:16:14 71° WSW 17:20:04 10° NNW
CZ-4 R/B 4.5 17:16:11 10° SW 17:18:48 16° W 17:21:24 10° NW
Cosmos 1428 Rocket 4.4 17:12:56 10° N 17:19:16 85° E 17:25:29 10° SSE
Cosmos 1674 4.1 17:16:08 10° NNW 17:19:46 40° W 17:23:22 10° SSW
MOS 1 Rocket 3.5 17:16:53 10° N 17:21:18 64° WNW 17:25:32 10° SSW
Cosmos 1461 3.8 17:20:10 10° NW 17:24:46 45° NNE 17:26:46 29° E
TSX-5 4.3 17:24:49 10° SSW 17:28:49 50° ESE 17:33:58 10° NE
CZ-2C R/B 2.6 17:23:40 10° NNE 17:29:15 75° ESE 17:34:52 10° S
Cosmos 2279 Rocket 4.1 17:28:28 17° SSE 17:33:10 51° E 17:39:13 10° NNE
NOSS 2-2 (C) 4.1 17:30:42 10° WSW 17:34:21 52° NNW 17:38:52 10° NE
FREGAT/IRIS 3.9 17:33:45 24° SW 17:34:44 32° W 17:37:09 10° NNW
Cosmos 2082 Rocket 2.1 17:31:18 10° NNW 17:36:57 76° NE 17:39:26 35° SE
Cosmos 2098 Rocket 4.1 17:31:09 10° N 17:38:07 60° ENE 17:40:52 32° SE
MetOp-B 4.2 17:36:07 34° SE 17:38:17 59° ENE 17:43:34 10° NNW
DMSP B5D2-2 4.0 17:34:24 10° NNE 17:39:45 78° ESE 17:45:03 10° SSW
Cosmos 1758 4.5 17:41:55 28° NE 17:41:55 28° NE 17:44:25 10° NNE
Cosmos 1340 Rocket 2.7 17:39:40 36° S 17:41:07 69° ESE 17:45:09 10° NNE
Cosmos 1733 3.3 17:39:38 10° SSW 17:43:28 76° WNW 17:47:19 10° N
Lacrosse 5 rocket 1.4 17:39:32 10° WNW 17:43:58 85° SSW 17:45:05 51° ESE
Spot 2 Rocket 3.8 17:45:03 41° ESE 17:46:15 50° ENE 17:51:08 10° N
Cosmos 2142 Rocket 4.4 17:40:29 10° S 17:46:42 69° E 17:52:51 10° NNE
Cosmos 1602 Rocket 4.0 17:47:12 10° N 17:51:25 42° ENE 17:51:27 42° ENE
Ariane Rocket 4.3 17:49:13 10° SSW 17:53:54 37° W 17:58:39 10° NNW
Cosmos 1805 4.4 17:51:26 10° SW 17:55:12 44° WNW 17:59:00 10° N
H-2A R/B 4.5 17:51:43 10° SW 17:55:25 20° W 17:59:14 10° NW
OBJECT-B 2.1 17:55:36 31° SW 17:56:30 39° W 17:59:37 10° NNW
Cosmos 1140 Rocket 4.1 17:55:42 10° NNW 18:00:31 38° NE 18:01:18 36° ENE
Cosmos 909 Rocket 4.1 17:53:49 10° NW 18:00:31 78° SW 18:03:01 39° SSE
Exosat Rocket 3.8 17:56:46 10° SW 18:01:51 69° NW 18:07:03 10° NNE
COSMOS 2406 4.2 17:57:06 10° NW 18:02:25 42° WSW 18:05:51 21° S
Okean 1-7 Rocket 3.8 17:58:15 10° NNW 18:02:49 70° W 18:04:23 40° S
Cosmos 1626 Rocket 3.5 17:58:43 10° N 18:03:11 67° ENE 18:03:25 65° E
Terra 2.9 18:03:57 30° ENE 18:03:57 30° ENE 18:08:05 10° N
Cosmos 2263 Rocket 4.3 17:59:45 10° W 18:04:21 25° NNW 18:09:00 10° NNE
Cosmos 1626 4.0 18:02:02 10° NNW 18:05:17 29° W 18:07:28 16° SW
Cosmos 407 Rocket 3.8 18:00:22 10° NNW 18:05:21 47° NE 18:06:03 45° ENE
Cosmos 1844 Rocket 3.5 18:02:26 10° WSW 18:07:52 50° NW 18:13:21 10° NNE
SPOT 1/Viking Rocket 3.5 18:08:06 56° ESE 18:08:57 65° ENE 18:14:05 10° NNW
USA 229 DEB 4.5 18:03:12 10° WNW 18:09:54 49° N 18:14:14 24° ENE
USA 229 4.5 18:03:17 10° WNW 18:10:00 48° N 18:14:20 24° ENE
Cosmos 1455 Rocket 2.9 18:10:13 77° SE 18:10:26 81° E 18:14:50 10° NNE
Cosmos 2278 Rocket 2.1 18:09:59 43° S 18:11:34 58° ESE 18:17:08 10° NE
USA 290 4.0 18:08:46 10° NNW 18:10:37 27° N 18:10:37 27° N
Cosmos 2266 Rocket 3.8 18:08:09 10° N 18:14:13 78° ENE 18:15:59 48° SSE
ATLAS CENTAUR R/B 2.8 18:11:45 10° NW 18:14:54 25° NNE 18:15:07 25° NNE
Cosmos 1844 4.4 18:09:44 10° SW 18:15:17 54° NW 18:20:49 10° NNE
Lacrosse 4 Rocket 2.0 18:12:26 10° NW 18:16:21 46° WSW 18:16:33 46° SW
ISS -1.7 18:13:19 10° WSW 18:14:49 22° WSW 18:14:49 22° WSW
NOSS 3-4 (A) 3.3 18:11:00 10° SW 18:17:00 77° SE 18:23:32 10° NE
NOSS 3-4 (C) 3.3 18:11:07 10° SW 18:17:06 76° SE 18:23:38 10° NE
Iridium 51 4.4 18:15:41 10° N 18:19:40 78° W 18:19:43 77° WSW
NOSS 3-1 (A) 4.5 18:15:45 10° WNW 18:22:06 48° N 18:26:34 24° ENE
Cosmos 614 Rocket 3.8 18:21:18 10° NNW 18:26:31 83° ENE 18:26:53 76° ESE
Cosmos 1703 4.3 18:23:09 10° N 18:25:46 37° NNE 18:25:46 37° NNE
Resurs 01 Rocket 2.5 18:25:52 35° SW 18:27:06 44° W 18:31:23 10° NNW
Cosmos 1833 Rocket 3.8 18:22:40 10° NW 18:27:49 37° WSW 18:30:12 26° SSW
CZ-2C R/B 3.8 18:26:35 10° NNE 18:31:05 74° WNW 18:31:44 61° SW
Cosmos 2251 Rocket 4.1 18:26:45 10° NW 18:31:59 53° WSW 18:33:15 43° SSW
Cosmos 1726 4.1 18:37:32 22° NNE 18:37:32 22° NNE 18:38:59 10° NNE
Cosmos 1470 3.5 18:37:10 50° NW 18:37:10 50° NW 18:40:28 10° N
ERS-1 Rocket 2.9 18:37:39 73° ENE 18:37:39 73° ENE 18:42:37 10° NNW
ATLAS 3B R/B 3.7 18:33:47 10° WNW 18:39:55 36° WSW 18:42:34 27° SSW
ATLAS 2AS CENTAUR R/B 2.9 18:32:01 10° SW 18:40:02 88° SE 18:47:51 10° NE
IGS 5A 4.1 18:42:30 53° W 18:42:30 53° W 18:46:17 10° NNW
ARIANE 5 R/B 3.2 18:42:31 50° WSW 18:42:36 50° W 18:46:50 10° NNW
Cosmos 2227 Rocket 4.5 18:40:12 10° NW 18:44:01 18° N 18:47:50 10° NE
Nadezhda 2 Rocket 4.4 18:39:42 10° N 18:45:51 65° ENE 18:46:12 64° E
Aureole 1 Rocket 4.0 18:41:16 10° NNW 18:46:00 43° NNE 18:46:00 43° NNE
Cosmos 1825 Rocket 4.4 18:44:20 10° N 18:47:30 43° NNE 18:47:30 43° NNE
Landsat 7 4.3 18:49:05 53° WSW 18:49:22 54° W 18:54:04 10° NNW
Cosmos 1758 Rocket 4.2 18:46:21 10° N 18:49:51 53° N 18:49:51 53° N
Cosmos 1190 Rocket 4.0 18:45:46 10° NNW 18:50:47 75° NNE 18:50:47 75° NNE
Meteor 2-10 4.1 18:53:19 70° SW 18:53:51 78° WNW 18:59:13 10° NNE
SPOT 5 3.0 18:54:34 84° NNE 18:54:34 84° NNE 18:59:49 10° NNW
CARTOSAT-1 4.2 18:56:13 53° NNW 18:56:13 53° NNW 18:59:34 10° NNW
Meteor 2-21 Rocket 4.3 18:50:02 10° NNW 18:56:17 83° ENE 18:56:44 77° SE
Cosmos 1943 Rocket 4.5 19:01:02 11° NE 19:01:02 11° NE 19:01:15 10° NE
Cosmos 1953 4.1 18:58:56 27° N 18:58:56 27° N 19:00:52 10° N
NOSS 3-1 (C) 4.1 18:53:39 10° NW 19:00:25 62° NNE 19:02:40 46° E
Cosmos 2084 4.4 18:59:13 10° NW 19:02:29 48° NW 19:02:29 48° NW
Cosmos 1544 Rocket 4.5 19:04:34 46° NW 19:04:34 46° NW 19:08:18 10° N
Cosmos 1461 4.0 18:59:24 10° NW 19:03:08 47° W 19:03:08 47° W
Meteor 1-11 4.2 19:03:10 10° NNW 19:08:27 80° NNW 19:08:27 80° NNW
CZ-4C R/B 4.3 19:14:58 17° ENE 19:14:58 17° ENE 19:16:22 10° NE
Cosmos 1745 Rocket 4.3 19:08:05 10° N 19:13:37 51° NE 19:13:37 51° NE
Meteor 1-16 Rocket 4.3 19:15:38 82° N 19:15:38 82° N 19:21:18 10° NNE
Cosmos 2082 Rocket 3.7 19:15:57 10° NW 19:20:33 27° WSW 19:21:17 26° WSW
Lacrosse 5 rocket 3.6 19:18:49 10° WNW 19:20:43 22° W 19:20:43 22° W
Cosmos 1244 Rocket 4.4 19:16:53 10° NNW 19:22:58 84° WNW 19:22:58 84° WNW
COSMOS 2455 3.7 19:31:30 39° NE 19:31:30 39° NE 19:35:09 10° NE
Cosmos 2297 Rocket 4.0 19:26:37 10° NNW 19:31:05 23° NNE 19:32:54 20° NE
Terra 3.0 19:42:51 40° NW 19:42:51 40° NW 19:46:11 10° NNW
Cosmos 1140 Rocket 4.5 19:37:32 10° NW 19:41:18 41° WNW 19:41:18 41° WNW
Cosmos 2369 Rocket 4.3 19:46:58 16° NE 19:46:58 16° NE 19:48:12 10° NE
Cosmos 1709 Rocket 4.5 19:42:13 10° N 19:47:22 50° NE 19:47:22 50° NE
ATLAS CENTAUR R/B 4.1 19:50:38 10° NW 19:51:17 15° NW 19:51:17 15° NW
Cosmos 2278 Rocket 3.3 19:51:32 15° WSW 19:55:56 41° NW 20:01:18 10° NNE
USA 229 DEB 3.8 19:54:32 10° NW 20:01:38 82° NNE 20:01:38 82° NNE
USA 229 3.8 19:54:38 10° NW 20:01:44 81° NNE 20:01:44 81° NNE
NOSS 3-4 (A) 4.2 20:02:18 10° W 20:08:19 51° NNW 20:14:57 10° ENE
NOSS 3-4 (C) 4.2 20:02:24 10° W 20:08:25 51° NNW 20:15:03 10° ENE
MOS 1-B Rocket 4.4 20:02:49 10° NNE 20:09:52 89° ESE 20:09:55 88° SSE
NOSS 3-1 (A) 3.9 20:06:52 10° NW 20:13:54 80° NE 20:13:58 80° NE
Cosmos 2227 Rocket 3.6 20:24:49 10° NNW 20:29:53 32° NE 20:29:53 32° NE
ATLAS 2AS CENTAUR R/B 3.6 20:23:59 10° W 20:31:45 53° NNW 20:39:12 10° ENE
Cosmos 1943 Rocket 3.5 20:42:33 34° NNE 20:42:33 34° NNE 20:45:37 10° NNE
NOSS 3-1 (C) 4.3 20:44:30 10° NW 20:50:02 53° W 20:50:02 53° W
Cosmos 2219 4.3 20:47:01 10° NNW 20:51:25 41° NNE 20:51:25 41° NNE
CZ-4C R/B 3.2 21:00:08 48° NNE 21:00:08 48° NNE 21:05:31 10° NE
COSMOS 2455 4.0 21:14:36 37° NW 21:15:35 39° NNW 21:21:16 10° NE
Cosmos 2297 Rocket 3.3 21:10:45 10° NNW 21:14:40 41° N 21:14:40 41° N
Cosmos 2369 Rocket 3.3 21:28:45 40° N 21:28:45 40° N 21:32:34 10° NNE
Cosmos 2263 Rocket 4.2 21:31:42 10° NNW 21:36:16 25° NNE 21:40:49 10° E
SL-16 R/B 3.1 22:05:31 50° NE 22:05:31 50° NE 22:11:18 10° NNW
Resurs 1-4 Rocket 4.1 22:01:42 10° NE 22:04:48 21° ENE 22:04:48 21° ENE
CZ-2D R/B 4.0 22:07:42 10° NE 22:10:59 22° ENE 22:10:59 22° ENE
Cosmos 2227 Rocket 3.6 22:08:53 10° NW 22:11:40 30° NW 22:11:40 30° NW
ATLAS 2AS CENTAUR R/B 3.7 22:16:29 10° WNW 22:24:07 50° N 22:31:16 10° E
Cosmos 1943 Rocket 3.8 22:24:03 27° NW 22:24:36 27° NNW 22:29:20 10° NNE
SL-8 Rocket 4.3 22:19:44 10° N 22:24:55 61° N 22:24:55 61° N
ATLAS 5 CENTAUR R/B 3.6 22:34:33 27° NE 22:34:33 27° NE 22:36:52 10° NE
Cosmos 2366 rocket 4.2 22:37:19 10° N 22:42:46 68° N 22:42:46 68° N
CZ-4C R/B 3.5 22:45:17 26° NW 22:48:28 44° N 22:55:24 10° ENE
Cosmos 2218 Rocket 4.2 22:43:19 10° NNW 22:48:50 68° NNW 22:48:50 68° NNW
USA 234 3.2 22:49:21 10° E 22:55:55 84° N 22:56:09 82° NNW
ADEOS II 3.8 22:51:46 10° NE 22:56:02 24° E 22:56:28 24° E
Cosmos 2297 Rocket 4.2 22:55:04 10° NW 22:56:26 17° NW 22:56:26 17° NW
SJ 16-02 3.1 22:58:56 10° NNW 23:02:26 31° NE 23:02:26 31° NE
Cosmos 2221 4.5 23:09:06 25° N 23:09:06 25° N 23:11:04 10° N
Cosmos 1241 Rocket 4.5 23:08:04 80° NNE 23:08:04 80° NNE 23:14:13 10° NE
Cosmos 2369 Rocket 4.0 23:10:31 21° NW 23:12:07 24° NNW 23:16:40 10° NNE
Cosmos 1697 Rocket 3.3 23:17:28 48° E 23:17:28 48° E 23:22:25 10° NE
SL-19 R/B 4.4 23:11:51 10° NNE 23:16:11 62° NNE 23:16:11 62° NNE
SL-08 R/B 4.5 23:12:43 10° NNW 23:18:59 83° NW 23:18:59 83° NW
Cosmos 2181 Rocket 4.0 23:20:19 73° NW 23:20:19 73° NW 23:26:13 10° N
Cosmos 2263 Rocket 2.5 23:15:38 10° NNW 23:21:17 65° NE 23:22:19 54° E
Cosmos 1992 Rocket 4.4 23:23:05 59° NNE 23:23:05 59° NNE 23:27:21 10° NNE
Cosmos 1980 Rocket 3.3 23:23:46 34° ESE 23:24:05 34° ESE 23:29:07 10° NE
Cosmos 1656 3.7 23:31:30 74° NNE 23:31:30 74° NNE 23:36:34 10° NE
Cosmos 1818 3.8 23:39:49 64° NNW 23:39:49 64° NNW 23:45:06 10° NE
SL-08 R/B 3.8 23:39:50 54° ENE 23:39:58 54° ENE 23:44:29 10° N
Lacrosse 5 2.6 23:43:17 45° ESE 23:43:17 45° ESE 23:47:10 10° ENE
SL-16 R/B 4.4 23:42:52 12° SE 23:45:56 18° E 23:49:36 10° ENE
AQUA 4.1 23:41:20 10° NNE 23:45:33 67° NE 23:45:33 67° NE
Resurs 1-4 Rocket 2.1 23:40:56 10° NNE 23:45:52 74° NNW 23:45:52 74° NNW
SL-19 R/B 4.3 23:46:59 70° WNW 23:46:59 70° WNW 23:52:19 10° NNW
Helios 1B rocket 4.4 23:44:25 10° N 23:46:23 21° NNW 23:46:23 21° NNW
SL-16 R/B 3.3 23:50:37 37° WNW 23:50:37 37° WNW 23:54:59 10° NNW
NOSS 3-4 (A) 3.8 23:45:26 10° NW 23:52:08 77° NE 23:59:37 10° ESE
NOSS 3-4 (C) 3.8 23:45:33 10° NW 23:52:15 77° NE 23:59:44 10° ESE
Cosmos 1937 Rocket 4.5 23:47:31 10° NNW 23:52:29 45° NE 23:57:25 10° SE
CZ-2D R/B 2.1 23:47:14 10° NNE 23:52:17 71° NW 23:52:17 71° NW
Cosmos 2227 4.1 23:47:55 10° NW 23:53:14 76° WNW 23:53:14 76° WNW
USA 307 4.3 23:56:31 31° ESE 23:56:31 31° ESE 23:59:00 10° E
